Find INMARSAT III F-4

NORAD ID: 24819 Int'l Des: 1997-027 Owner: INMAR Country: I-INM operational
HEOCIRCULAR

Aktuelle Ansicht

3D-Globus wird geladen...

Über INMARSAT III F-4

Beschreibung wird geladen...

Nächste Überflüge

Passes for default location (London). Set your location on the main map for personalized predictions.

Höhenverlauf

Loading altitude history...

Zweizeiliger Elementsatz

1 24819U 97027A 26151.14747234 -.00000072 00000-0 00000+0 0 9995
2 24819 11.4943 37.8736 0010981 51.7079 301.6260 0.99494830105886
Epoch: 31. Mai 2026 • Age: 19 hours

Aktueller Status

Höhe 36042.3 km
Geschwindigkeit 3.06 km/s
Subsatellitenpunkt -11.49°S, 87.27°E
Startdatum 3. Juni 1997
Alter 28.9 years
Typ communications

Technische Details

Klassifizierung Payload
Masse 1068.00 kg
Trockenmasse 813.00 kg
Gesamtmasse 1999.00 kg
Länge 7.60 m
Durchmesser 2.30 m
Spannweite 20.70 m
Form Box + 2 Pan
Hersteller LMTEW
Bus-Typ AS4000
Phasenstatus Renamed
Besitzer/Staat INMAR/I-INM

Most Searched